Location: Beadle
(51.4667°N, 109.0000°W)
Time: 10:00:13
(UTC+00:00)

DIWATA 2B (PO-101) - Pass Details

Date: 28 June 2022
Orbit: 583 x 599 km, 98.0° (Epoch: 14 August)

Event Time Altitude Azimuth Distance (km) Brightness Sun altitude
Exits shadow 07:40:33 - 121° (ESE) 2,665 ? -15.1°
Reaches altitude 10° 07:42:42 10° 106° (ESE) 1,941 ? -15.1°
Maximum altitude 07:45:45 20° 60° (ENE) 1,414 ? -15.0°
Drops below altitude 10° 07:48:49 10° 13° (NNE) 1,953 ? -15.0°
Sets 07:51:27 0° 357° (N) 2,861 ? -14.9°
